DW6119 Weather Reports


Display with metric or nautical units.
time (UTC)temp
F
wind
direction
speed
MPH
gust
MPH
rain 1hr
in
rain 24hr
in
rain mn
in
humidity
%
barometer
mb
20260509042412 54 83 1.0 2.0 0.00 0.00 0.00 82 1019.5
20260509040912 53 135 1.0 1.0 0.00 0.00 0.00 84 1019.6
20260509040413 53 64 0.0 1.0 0.00 0.00 0.00 85 1019.6
20260509035412 54 252 0.0 1.0 0.00 0.00 0.00 84 1019.3
20260509034912 54 217 0.0 1.0 0.00 0.00 0.00 83 1019.5
20260509034412 54 106 0.0 1.0 0.00 0.00 0.00 83 1019.5
20260509033913 55 243 0.0 2.0 0.00 0.00 0.00 83 1019.4
20260509033412 55 224 0.0 2.0 0.00 0.00 0.00 82 1019.6
20260509032912 55 207 0.0 3.0 0.00 0.00 0.00 82 1019.6
20260509032412 55 235 0.0 3.0 0.00 0.00 0.00 82 1019.3
20260509031913 55 161 1.0 3.0 0.00 0.00 0.00 82 1019.3
20260509031412 55 179 0.0 3.0 0.00 0.00 0.00 83 1019.3
20260509030912 54 186 0.0 2.0 0.00 0.00 0.00 84 1019.2
20260509030412 54 253 0.0 2.0 0.00 0.00 0.00 85 1019.5
20260509025914 54 250 0.0 2.0 0.00 0.00 0.00 85 1019.3
20260509025413 54 57 0.0 1.0 0.00 0.00 0.00 84 1019.3
20260509024912 54 64 0.0 1.0 0.00 0.00 0.00 84 1019.0
20260509024412 54 324 0.0 1.0 0.00 0.00 0.00 84 1019.3
20260509023912 54 72 0.0 1.0 0.00 0.00 0.00 83 1019.2
20260509023412 54 244 1.0 1.0 0.00 0.00 0.00 84 1019.3
20260509022914 54 180 0.0 1.0 0.00 0.00 0.00 85 1019.1
20260509021912 53 242 0.0 1.0 0.00 0.00 0.00 84 1019.3
20260509021412 54 69 0.0 1.0 0.00 0.00 0.00 85 1019.3
20260509020913 54 240 0.0 1.0 0.00 0.00 0.00 85 1019.3
20260509020413 54 246 0.0 1.0 0.00 0.00 0.00 84 1019.3
20260509014915 54 251 0.0 1.0 0.00 0.00 0.00 83 1019.3
20260509014413 54 252 0.0 1.0 0.00 0.00 0.00 84 1019.3
20260509013412 55 263 0.0 1.0 0.00 0.00 0.00 84 1019.0
20260509012912 55 94 0.0 1.0 0.00 0.00 0.00 84 1019.0
20260509012413 55 136 0.0 1.0 0.00 0.00 0.00 83 1019.0
20260509011913 55 248 0.0 2.0 0.00 0.00 0.00 83 1019.0
20260509010912 55 255 1.0 2.0 0.00 0.00 0.00 83 1019.0
20260509010412 55 248 0.0 1.0 0.00 0.00 0.00 84 1019.0
20260509005912 55 246 0.0 1.0 0.00 0.00 0.00 84 1019.0
20260509005412 55 237 0.0 1.0 0.00 0.00 0.00 83 1018.7
20260509004914 55 230 0.0 1.0 0.00 0.00 0.00 83 1019.0
20260509004413 55 107 0.0 1.0 0.00 0.00 0.00 83 1019.0
20260509003912 55 169 0.0 1.0 0.00 0.00 0.00 83 1019.0
20260509003412 55 255 1.0 1.0 0.00 0.00 0.00 84 1018.8
20260509002913 55 253 0.0 1.0 0.00 0.00 0.00 84 1019.0
20260509001914 55 247 0.0 1.0 0.00 0.00 0.00 83 1018.7
20260509001413 55 63 0.0 0.0 0.00 0.00 0.00 83 1018.9
20260509000912 55 69 0.0 1.0 0.00 0.00 0.00 83 1018.9
20260509000412 56 71 0.0 1.0 0.00 0.00 0.00 83 1018.6
20260508235412 56 253 0.0 1.0 0.00 0.00 0.00 82 1018.6
20260508234913 56 93 0.0 0.0 0.00 0.00 0.00 82 1018.6
20260508234412 56 93 0.0 0.0 0.00 0.00 0.00 82 1019.0
20260508233913 56 93 0.0 1.0 0.00 0.00 0.00 82 1019.0
20260508233413 56 93 0.0 1.0 0.00 0.00 0.00 82 1018.6
20260508232913 56 93 1.0 1.0 0.00 0.00 0.00 81 1018.6
20260508232413 57 97 0.0 1.0 0.00 0.00 0.00 81 1018.6
20260508231414 57 163 0.0 1.0 0.00 0.00 0.00 79 1018.6
20260508230912 57 195 0.0 1.0 0.00 0.00 0.00 79 1018.6
20260508230412 57 131 0.0 1.0 0.00 0.00 0.00 79 1018.8
20260508225913 58 202 0.0 1.0 0.00 0.00 0.00 78 1019.0
20260508225412 57 198 0.0 1.0 0.00 0.00 0.00 77 1018.6
20260508224912 57 128 0.0 1.0 0.00 0.00 0.00 78 1018.6
20260508224412 57 145 0.0 0.0 0.00 0.00 0.00 79 1018.6
20260508223913 57 126 0.0 0.0 0.00 0.00 0.00 79 1018.7
20260508223413 57 102 0.0 1.0 0.00 0.00 0.00 79 1018.8
20260508222912 57 132 0.0 1.0 0.00 0.00 0.00 79 1018.6
20260508222412 57 128 0.0 1.0 0.00 0.00 0.00 79 1018.6
20260508221412 57 249 0.0 1.0 0.00 0.00 0.00 79 1018.6
20260508220913 58 75 0.0 1.0 0.00 0.00 0.00 78 1018.6
20260508215913 58 82 1.0 1.0 0.00 0.00 0.00 78 1018.6
20260508215415 58 183 0.0 0.0 0.00 0.00 0.00 78 1018.6
20260508214913 58 183 0.0 1.0 0.00 0.00 0.00 77 1018.4
20260508213913 58 76 0.0 1.0 0.00 0.00 0.00 77 1018.3
20260508213413 58 80 1.0 1.0 0.00 0.00 0.00 77 1018.3
20260508212912 58 242 0.0 1.0 0.00 0.00 0.00 78 1018.3
20260508212412 58 60 0.0 1.0 0.00 0.00 0.00 77 1018.3
20260508211914 59 86 0.0 1.0 0.00 0.00 0.00 77 1018.3
20260508211412 59 137 0.0 0.0 0.00 0.00 0.00 77 1018.3
20260508210913 59 137 0.0 0.0 0.00 0.00 0.00 77 1018.3
20260508210412 59 173 0.0 0.0 0.00 0.00 0.00 76 1018.3
20260508205912 59 230 0.0 1.0 0.00 0.00 0.00 75 1018.3
20260508205413 60 230 0.0 1.0 0.00 0.00 0.00 76 1018.3
20260508204914 60 177 0.0 1.0 0.00 0.00 0.00 75 1018.2
20260508204412 60 170 0.0 0.0 0.00 0.00 0.00 75 1017.9
20260508203913 60 170 0.0 1.0 0.00 0.00 0.00 75 1018.1
20260508202912 60 260 0.0 1.0 0.00 0.00 0.00 75 1017.9
20260508202412 60 99 0.0 1.0 0.00 0.00 0.00 74 1017.9
20260508201913 60 111 0.0 1.0 0.00 0.00 0.00 74 1017.6
20260508201413 60 249 0.0 1.0 0.00 0.00 0.00 74 1017.9
20260508200912 61 193 0.0 1.0 0.00 0.00 0.00 73 1017.6
20260508200412 61 314 0.0 2.0 0.00 0.00 0.00 72 1017.8
20260508195914 61 94 0.0 2.0 0.00 0.00 0.00 72 1017.6
20260508195413 61 69 1.0 2.0 0.00 0.00 0.00 72 1017.6
20260508194913 61 253 0.0 1.0 0.00 0.00 0.00 73 1017.6
20260508193913 61 240 0.0 1.0 0.00 0.00 0.00 72 1017.3
20260508193413 61 240 0.0 1.0 0.00 0.00 0.00 73 1017.3
20260508192912 62 81 0.0 1.0 0.00 0.00 0.00 72 1017.3
20260508191913 62 76 1.0 1.0 0.00 0.00 0.00 69 1016.9
20260508191415 63 139 0.0 0.0 0.00 0.00 0.00 70 1016.9
20260508190914 63 184 0.0 0.0 0.00 0.00 0.00 69 1016.9
20260508190413 63 229 0.0 1.0 0.00 0.00 0.00 69 1016.9
20260508185913 63 88 0.0 1.0 0.00 0.00 0.00 69 1016.7
20260508185412 63 77 0.0 1.0 0.00 0.00 0.00 68 1016.8
20260508184912 64 172 0.0 0.0 0.00 0.00 0.00 68 1016.6
20260508184413 64 211 0.0 0.0 0.00 0.00 0.00 68 1016.6
20260508182913 65 227 0.0 1.0 0.00 0.00 0.00 66 1016.3
20260508182413 65 78 0.0 1.0 0.00 0.00 0.00 65 1016.0
20260508181912 66 95 0.0 2.0 0.00 0.00 0.00 67 1016.1
20260508181412 66 248 0.0 2.0 0.00 0.00 0.00 65 1015.9
20260508180912 65 86 0.0 1.0 0.00 0.00 0.00 64 1016.1
20260508180412 66 228 0.0 1.0 0.00 0.00 0.00 66 1015.9
20260508175912 66 150 0.0 1.0 0.00 0.00 0.00 64 1015.9
20260508175412 67 196 0.0 1.0 0.00 0.00 0.00 64 1015.9
20260508174913 67 77 0.0 1.0 0.00 0.00 0.00 62 1015.6
20260508174412 68 206 0.0 3.0 0.00 0.00 0.00 62 1015.6
20260508173913 68 239 0.0 3.0 0.00 0.00 0.00 59 1015.6
20260508173412 68 230 1.0 3.0 0.00 0.00 0.00 57 1015.6
20260508172913 68 201 0.0 2.0 0.00 0.00 0.00 59 1015.6
20260508172413 68 210 1.0 2.0 0.00 0.00 0.00 57 1015.5
20260508171913 69 187 0.0 1.0 0.00 0.00 0.00 59 1015.6
20260508170912 69 249 0.0 3.0 0.00 0.00 0.00 56 1015.5
20260508170412 69 256 1.0 3.0 0.00 0.00 0.00 56 1015.2
20260508165912 70 253 1.0 3.0 0.00 0.00 0.00 55 1015.3
20260508165415 70 247 1.0 3.0 0.00 0.00 0.00 55 1015.6
20260508164913 70 238 1.0 3.0 0.00 0.00 0.00 55 1015.2
20260508164414 70 252 0.0 3.0 0.00 0.00 0.00 54 1015.2
20260508162912 70 255 1.0 3.0 0.00 0.00 0.00 53 1015.2
20260508162413 70 249 1.0 3.0 0.00 0.00 0.00 52 1015.2
20260508161912 70 252 1.0 3.0 0.00 0.00 0.00 53 1015.2
20260508161412 71 242 1.0 3.0 0.00 0.00 0.00 53 1015.1
20260508160412 71 252 1.0 3.0 0.00 0.00 0.00 53 1015.2
20260508155913 71 248 2.0 3.0 0.00 0.00 0.00 53 1015.2
20260508155414 71 243 2.0 5.0 0.00 0.00 0.00 53 1015.2
20260508154913 71 244 2.0 5.0 0.00 0.00 0.00 53 1015.2
20260508154413 71 255 2.0 5.0 0.00 0.00 0.00 54 1015.2
20260508153913 71 236 2.0 5.0 0.00 0.00 0.00 54 1014.9
20260508153414 71 228 3.0 5.0 0.00 0.00 0.00 54 1015.2
20260508152412 71 243 3.0 7.0 0.00 0.00 0.00 54 1015.2
20260508151913 72 241 4.0 7.0 0.00 0.00 0.00 53 1015.0
20260508151412 71 239 2.0 8.0 0.00 0.00 0.00 54 1015.2
20260508150913 71 239 3.0 9.0 0.00 0.00 0.00 54 1015.2
20260508150414 71 212 3.0 9.0 0.00 0.00 0.00 54 1015.2
20260508145912 71 255 3.0 9.0 0.00 0.00 0.00 55 1015.2
20260508144912 71 260 5.0 8.0 0.00 0.00 0.00 54 1015.2
20260508144416 72 252 3.0 7.0 0.00 0.00 0.00 54 1015.2
20260508143915 72 281 2.0 8.0 0.00 0.00 0.00 53 1015.2
20260508143413 72 273 3.0 8.0 0.00 0.00 0.00 53 1014.9
20260508142912 73 206 3.0 8.0 0.00 0.00 0.00 52 1015.2
20260508141913 74 263 3.0 7.0 0.00 0.00 0.00 49 1015.2
20260508141413 73 275 2.0 7.0 0.00 0.00 0.00 50 1015.2
20260508140915 74 217 3.0 7.0 0.00 0.00 0.00 48 1015.2
20260508140413 75 222 3.0 9.0 0.00 0.00 0.00 48 1014.9
20260508135914 74 239 2.0 9.0 0.00 0.00 0.00 49 1015.2
20260508135413 73 240 5.0 9.0 0.00 0.03 0.00 49 1015.2
20260508134913 74 237 5.0 9.0 0.00 0.13 0.00 49 1015.2
20260508134412 74 245 3.0 9.0 0.00 0.15 0.00 50 1015.2
20260508133913 73 255 3.0 9.0 0.00 0.15 0.00 50 1015.2
20260508133412 73 247 2.0 9.0 0.00 0.16 0.00 49 1015.5
20260508132913 73 251 3.0 7.0 0.00 0.16 0.00 49 1015.6
20260508132414 73 246 3.0 7.0 0.00 0.16 0.00 49 1015.6
20260508131914 73 244 3.0 7.0 0.00 0.16 0.00 50 1015.6
20260508131413 73 261 5.0 9.0 0.00 0.16 0.00 50 1015.6
20260508130912 74 255 1.0 9.0 0.00 0.16 0.00 50 1015.6
20260508130412 73 243 3.0 9.0 0.00 0.16 0.00 51 1015.6
20260508125913 73 248 3.0 7.0 0.00 0.16 0.00 51 1015.6
20260508125412 73 264 2.0 9.0 0.00 0.16 0.00 51 1015.6
20260508124913 73 253 3.0 9.0 0.00 0.16 0.00 50 1015.6
20260508124412 73 253 2.0 9.0 0.00 0.16 0.00 50 1015.9
20260508123414 73 234 3.0 8.0 0.00 0.16 0.00 50 1015.7
20260508122912 73 247 2.0 8.0 0.00 0.16 0.00 50 1015.7
20260508122413 72 223 3.0 8.0 0.00 0.16 0.00 51 1015.6
20260508121912 72 254 3.0 8.0 0.00 0.16 0.00 50 1015.9
20260508121412 72 273 4.0 8.0 0.00 0.16 0.00 50 1015.9
20260508120912 73 240 2.0 8.0 0.00 0.16 0.00 50 1015.7
20260508120413 73 186 1.0 9.0 0.00 0.16 0.00 50 1015.6
20260508115914 72 241 4.0 9.0 0.00 0.16 0.00 50 1015.7
20260508115413 72 256 2.0 9.0 0.00 0.16 0.00 51 1015.9
20260508114912 72 244 4.0 8.0 0.00 0.16 0.00 52 1015.9
20260508114414 72 235 4.0 8.0 0.00 0.16 0.00 50 1015.9
20260508113913 72 213 4.0 8.0 0.00 0.17 0.00 49 1015.9
20260508113415 72 247 2.0 8.0 0.00 0.17 0.00 49 1015.9
20260508112912 72 283 3.0 8.0 0.00 0.17 0.00 50 1015.9
20260508111913 72 237 2.0 8.0 0.00 0.17 0.00 51 1015.9
20260508111413 71 266 2.0 7.0 0.00 0.17 0.00 50 1016.1
20260508110912 71 250 3.0 9.0 0.00 0.17 0.00 51 1015.9
20260508110412 71 230 3.0 9.0 0.00 0.17 0.00 51 1016.3
20260508105912 71 250 3.0 9.0 0.00 0.17 0.00 51 1016.3
20260508105413 71 220 2.0 7.0 0.00 0.17 0.00 52 1016.3
20260508104914 71 241 2.0 9.0 0.00 0.17 0.00 53 1016.3
20260508104412 70 267 2.0 9.0 0.00 0.17 0.00 53 1016.3
20260508103914 70 265 3.0 9.0 0.00 0.17 0.00 54 1016.6
20260508103413 70 236 4.0 8.0 0.00 0.17 0.00 53 1016.6
20260508102913 71 230 2.0 7.0 0.00 0.17 0.00 53 1016.3
20260508102413 71 238 2.0 7.0 0.00 0.17 0.00 54 1016.6
20260508101913 71 248 2.0 7.0 0.00 0.17 0.00 55 1016.6
20260508101413 70 228 2.0 7.0 0.00 0.17 0.00 55 1016.6
20260508100913 70 189 1.0 7.0 0.00 0.17 0.00 55 1016.6
20260508100413 69 276 1.0 9.0 0.00 0.17 0.00 57 1016.7
20260508095913 69 255 1.0 9.0 0.00 0.17 0.00 58 1016.8
20260508095413 69 255 1.0 5.0 0.00 0.17 0.00 56 1016.6
20260508094913 69 217 1.0 3.0 0.00 0.17 0.00 57 1016.9
20260508094412 69 245 1.0 3.0 0.00 0.17 0.00 57 1016.9
20260508093913 68 232 0.0 2.0 0.00 0.17 0.00 57 1016.9
20260508093414 68 258 2.0 3.0 0.00 0.17 0.00 57 1016.9
20260508092913 67 207 1.0 3.0 0.00 0.17 0.00 58 1017.3
20260508092412 67 247 2.0 3.0 0.00 0.17 0.00 56 1017.1
20260508091912 67 92 0.0 2.0 0.00 0.17 0.00 58 1017.3
20260508091413 66 122 0.0 2.0 0.00 0.17 0.00 58 1017.3
20260508090913 66 244 1.0 2.0 0.00 0.17 0.00 59 1017.3
20260508085912 65 246 1.0 3.0 0.00 0.17 0.00 63 1017.3
20260508085413 65 237 2.0 3.0 0.00 0.17 0.00 61 1017.3
20260508084914 65 240 1.0 2.0 0.00 0.17 0.00 62 1017.3
20260508084414 65 253 1.0 2.0 0.00 0.17 0.00 63 1017.3
20260508083913 65 37 0.0 2.0 0.00 0.17 0.00 64 1017.3
20260508083414 64 69 0.0 2.0 0.00 0.17 0.00 66 1017.4
20260508082913 63 248 1.0 3.0 0.00 0.17 0.00 66 1017.3
20260508082413 63 239 1.0 3.0 0.00 0.17 0.00 67 1017.3
20260508081914 63 236 0.0 3.0 0.00 0.17 0.00 67 1017.3
20260508081412 63 245 2.0 3.0 0.00 0.17 0.00 67 1017.6
20260508080912 62 270 2.0 3.0 0.00 0.17 0.00 68 1017.3
20260508080413 62 246 1.0 2.0 0.00 0.17 0.00 68 1017.3
20260508075413 62 47 1.0 3.0 0.00 0.17 0.00 69 1017.8
20260508074913 62 49 1.0 3.0 0.00 0.17 0.00 71 1017.6
20260508074414 62 48 0.0 2.0 0.00 0.17 0.00 70 1017.6
20260508073912 61 33 1.0 2.0 0.00 0.17 0.00 71 1017.6
20260508073413 61 242 0.0 1.0 0.00 0.17 0.00 71 1017.6
20260508072913 60 47 1.0 2.0 0.00 0.17 0.00 72 1017.6
20260508071913 60 38 0.0 2.0 0.00 0.17 0.00 72 1017.7
20260508071413 60 22 0.0 2.0 0.00 0.17 0.00 74 1017.6
20260508070413 59 57 0.0 5.0 0.00 0.17 0.00 76 1017.8
20260508065414 58 51 1.0 5.0 0.00 0.17 0.00 76 1017.6
20260508064913 58 56 2.0 5.0 0.00 0.17 0.00 77 1017.4
20260508064414 57 78 2.0 5.0 0.00 0.17 0.00 77 1017.6
20260508063915 57 66 3.0 5.0 0.00 0.17 0.00 78 1017.6
20260508062915 57 122 0.0 5.0 0.00 0.17 0.00 78 1017.6
20260508062412 57 35 1.0 5.0 0.00 0.17 0.00 79 1017.6
20260508061912 56 77 1.0 2.0 0.00 0.17 0.00 80 1017.6
20260508061413 56 58 1.0 2.0 0.00 0.17 0.00 80 1017.9
20260508060912 56 49 0.0 2.0 0.00 0.17 0.00 80 1017.8
20260508054912 55 68 1.0 2.0 0.00 0.17 0.00 82 1017.6
20260508054413 56 40 0.0 8.0 0.00 0.17 0.00 81 1017.3
20260508053913 55 1 0.0 8.0 0.00 0.17 0.00 80 1017.5
20260508051914 54 52 1.0 5.0 0.00 0.17 0.00 81 1017.5
20260508051415 54 171 1.0 5.0 0.00 0.17 0.00 83 1017.6
20260508050912 54 47 2.0 5.0 0.00 0.17 0.00 84 1017.5
20260508050413 54 75 1.0 5.0 0.00 0.17 0.00 83 1017.3
20260508045913 54 62 1.0 5.0 0.00 0.17 0.00 82 1017.6
20260508045413 54 145 2.0 3.0 0.00 0.17 0.00 82 1017.6
20260508044413 54 65 1.0 3.0 0.00 0.17 0.00 82 1017.5
20260508043912 54 72 1.0 3.0 0.00 0.17 0.00 82 1017.3
20260508043414 54 90 0.0 2.0 0.00 0.17 0.00 83 1017.6
20260508042913 54 95 0.0 2.0 0.00 0.17 0.00 83 1017.3